SCOUT A DEB, 2778

Orbit data source: Space-Track

SCOUT A DEB, 2778 is space debris in LEO originally from a launch on Fri, 14 Apr 1967 UTC launched from the Air Force Western Test Range (AFWTR). Debris objects in space refer to the collection of defunct objects orbiting the Earth. Examples of debris include non-operational satellites, rocket bodies, and fragments generated from explosions, collisions, or faulty payload assembly.

Loading next visibility...
Identifier
2778, 1967-034D
Orbit
LEO
Country
Flag of USUS
Related business
Manufacturer
Unknown
Mission
Spacecraft
Bus & Motor
Unknown
Mass
Unknown
Launch date (UTC)
1967-04-14 (58 years ago)
Launch vehicle
Unknown
Launch site
Air Force Western Test Range (AFWTR)
Object type
Payload
Rocket body
Debris
Shape & HBR
Unknown
Radar Cross Section
Small (<0.1 m²)

Expand to show TLE details & history
Last TLE update: 23 hours ago

TLE from 23 hours ago
0 SCOUT A DEB
1 02778U 67034D   25258.16010499  .00000292  00000-0  53370-3 0  9990
2 02778  89.8415  41.6686 0123651  50.8237   1.0206 13.35155791836450
Epoch: 2025-09-15T03:50Z
TLE epoch observation values (Epoch: 2025-09-15T03:50:33.071Z)
Latitude
51.96465°
Longitude
-10.13638°
Altitude
1,043.041 km
Speed
7.38 km/s
True Right ascension
02h 47m 28s
True Declination
51° 48' 15"
Sunlit
Object was in daylight at epoch
Visualization orbit readout
Latitude
Unknown
Longitude
Unknown
Altitude
Unknown
Speed
Unknown
Apparent Right ascension
Unknown
Apparent Declination
Unknown
Sunlit
N/A
Visualization observer readout
Local Sidereal Time
19:49:21
Azimuth
Unknown
Elevation
Unknown
Doppler factor
Unknown
Orbital elements
Apogee altitude
1,217.22 km
Perigee altitude
1,031.68 km
Semi-major axis
7,502.587 km
Eccentricity
0.01237
Inclination
89.8415°
RAAN
41.6686°
Arg. of periapsis
50.8237°
True anomaly
1.04623°
Mean anomaly
1.0206°
Eccentric anomaly
1.03338°
Mean motion
3.33985 °/min
Orbital period
107.79 mins
BSTAR
0.0005337
Loading maneuver chart data...
Computing Atmospheric mass density...
Loading historical data...
Loading historical data...
Loading historical data...
Loading historical data...
Loading historical data...
Loading historical data...
Loading historical data...

Documentation

Showing up to 5 results
|